When you browse on this site, cookies collect data to enhance your experience and personalize the content and advertising you see.
Visit our Privacy Policy to learn more. By continuing to use the site, you agree to this use of cookies and data.
  • In United Kingdom
  • List of Countries
  • For 7 days
  • Water Temperature
  • Weather Map
  • Weather Widgets
  • user-avatar
    Login

    Hourly Weather La Paz

    Today, 21 October, Monday

    Time Temperature Precipitation Wind Pressure Humidity
    00:00 +8°C° 0 mm 1 mps 473 mmHg 50%
    01:00 +7°C° 0 mm 1 mps 473 mmHg 46%
    02:00 +7°C° 0 mm 1 mps 473 mmHg 41%
    03:00 +6°C° 0 mm 1 mps 472 mmHg 37%
    04:00 +5°C° 0 mm 0 mps 472 mmHg 33%
    05:00 +6°C° 0 mm 0 mps 473 mmHg 30%
    06:00 +8°C° 0 mm 0 mps 475 mmHg 27%
    07:00 +9°C° 0 mm 0 mps 476 mmHg 28%
    08:00 +12°C° 0 mm 1 mps 477 mmHg 29%
    09:00 +13°C° 0 mm 1 mps 477 mmHg 30%
    10:00 +14°C° 0 mm 2 mps 478 mmHg 32%
    11:00 +15°C° 0.1 mm 2 mps 477 mmHg 32%
    12:00 +15°C° 0.1 mm 2 mps 477 mmHg 32%
    13:00 +16°C° 0.1 mm 3 mps 477 mmHg 32%
    14:00 +14°C° 0.2 mm 3 mps 477 mmHg 34%
    15:00 +14°C° 0.2 mm 3 mps 476 mmHg 35%
    16:00 +14°C° 0.2 mm 3 mps 476 mmHg 36%
    17:00 +12°C° 0.1 mm 3 mps 475 mmHg 48%
    18:00 +11°C° 0.1 mm 3 mps 474 mmHg 59%
    19:00 +9°C° 0.1 mm 3 mps 474 mmHg 70%
    20:00 +8°C° 0 mm 3 mps 474 mmHg 72%
    21:00 +8°C° 0 mm 2 mps 474 mmHg 74%
    22:00 +7°C° 0 mm 2 mps 474 mmHg 77%
    23:00 +8°C° 0 mm 1 mps 474 mmHg 77%

    Tomorrow, 22 October, Tuesday

    Time Temperature Precipitation Wind Pressure Humidity
    00:00 +8°C° 0 mm 1 mps 473 mmHg 77%
    01:00 +7°C° 0 mm 1 mps 473 mmHg 77%
    02:00 +7°C° 0 mm 1 mps 473 mmHg 79%
    03:00 +6°C° 0 mm 1 mps 472 mmHg 81%
    04:00 +6°C° 0 mm 1 mps 472 mmHg 83%
    05:00 +7°C° 0 mm 1 mps 473 mmHg 78%
    06:00 +8°C° 0 mm 1 mps 474 mmHg 73%
    07:00 +8°C° 0 mm 1 mps 475 mmHg 68%
    08:00 +10°C° 0 mm 1 mps 476 mmHg 58%
    09:00 +12°C° 0 mm 2 mps 477 mmHg 48%
    10:00 +13°C° 0 mm 2 mps 478 mmHg 38%
    11:00 +13°C° 0 mm 3 mps 477 mmHg 35%
    12:00 +14°C° 0 mm 3 mps 477 mmHg 32%
    13:00 +16°C° 0 mm 3 mps 477 mmHg 29%
    14:00 +16°C° 0 mm 3 mps 477 mmHg 29%
    15:00 +16°C° 0 mm 3 mps 476 mmHg 29%
    16:00 +15°C° 0 mm 4 mps 476 mmHg 29%
    17:00 +13°C° 0 mm 3 mps 475 mmHg 38%
    18:00 +11°C° 0 mm 3 mps 474 mmHg 47%
    19:00 +10°C° 0 mm 2 mps 474 mmHg 56%
    20:00 +9°C° 0 mm 2 mps 474 mmHg 60%
    21:00 +8°C° 0 mm 2 mps 473 mmHg 65%
    22:00 +8°C° 0 mm 1 mps 473 mmHg 69%
    23:00 +8°C° 0 mm 1 mps 473 mmHg 69%

    Day after tomorrow, 23 October, Wednesday

    Time Temperature Precipitation Wind Pressure Humidity
    00:00 +7°C° 0 mm 1 mps 472 mmHg 69%
    01:00 +7°C° 0 mm 1 mps 472 mmHg 69%
    02:00 +7°C° 0 mm 1 mps 472 mmHg 64%
    03:00 +6°C° 0 mm 1 mps 471 mmHg 59%
    04:00 +6°C° 0 mm 1 mps 471 mmHg 55%
    05:00 +7°C° 0 mm 1 mps 473 mmHg 46%
    06:00 +9°C° 0 mm 1 mps 474 mmHg 37%
    07:00 +9°C° 0 mm 0 mps 475 mmHg 28%
    08:00 +12°C° 0 mm 1 mps 476 mmHg 25%
    09:00 +14°C° 0 mm 2 mps 477 mmHg 23%
    10:00 +14°C° 0 mm 3 mps 478 mmHg 21%
    11:00 +14°C° 0.1 mm 3 mps 478 mmHg 25%
    12:00 +15°C° 0.1 mm 4 mps 477 mmHg 28%
    13:00 +15°C° 0.1 mm 4 mps 477 mmHg 31%
    14:00 +14°C° 0 mm 4 mps 476 mmHg 34%
    15:00 +14°C° 0 mm 4 mps 475 mmHg 38%
    16:00 +13°C° 0 mm 4 mps 475 mmHg 41%
    17:00 +12°C° 0 mm 3 mps 474 mmHg 49%
    18:00 +10°C° 0 mm 3 mps 474 mmHg 58%
    19:00 +9°C° 0 mm 2 mps 473 mmHg 67%
    20:00 +8°C° 0 mm 2 mps 473 mmHg 67%
    21:00 +8°C° 0 mm 2 mps 473 mmHg 67%
    22:00 +7°C° 0 mm 2 mps 473 mmHg 67%
    23:00 +8°C° 0 mm 1 mps 472 mmHg 70%

    24 October, Thursday

    Time Temperature Precipitation Wind Pressure Humidity
    00:00 +7°C° 0 mm 1 mps 472 mmHg 73%
    01:00 +6°C° 0 mm 1 mps 471 mmHg 75%
    02:00 +5°C° 0 mm 0 mps 471 mmHg 76%
    03:00 +5°C° 0 mm 0 mps 471 mmHg 77%
    04:00 +4°C° 0 mm 0 mps 470 mmHg 77%
    05:00 +6°C° 0 mm 1 mps 472 mmHg 71%
    06:00 +8°C° 0 mm 1 mps 473 mmHg 65%
    07:00 +9°C° 0 mm 1 mps 474 mmHg 59%
    08:00 +10°C° 0 mm 2 mps 475 mmHg 53%
    09:00 +12°C° 0 mm 2 mps 476 mmHg 47%
    10:00 +14°C° 0 mm 2 mps 477 mmHg 42%
    11:00 +14°C° 0.1 mm 3 mps 477 mmHg 42%
    12:00 +14°C° 0.1 mm 3 mps 477 mmHg 41%
    13:00 +15°C° 0.1 mm 4 mps 477 mmHg 41%
    14:00 +14°C° 0.2 mm 4 mps 476 mmHg 43%
    15:00 +13°C° 0.2 mm 4 mps 475 mmHg 46%
    16:00 +12°C° 0.2 mm 4 mps 474 mmHg 48%
    17:00 +11°C° 0 mm 3 mps 474 mmHg 53%
    18:00 +10°C° 0 mm 3 mps 474 mmHg 59%
    19:00 +9°C° 0 mm 2 mps 473 mmHg 64%
    20:00 +8°C° 0 mm 2 mps 473 mmHg 63%
    21:00 +9°C° 0 mm 1 mps 473 mmHg 62%
    22:00 +8°C° 0 mm 1 mps 473 mmHg 61%
    23:00 +7°C° 0 mm 0 mps 473 mmHg 64%

    25 October, Friday

    Time Temperature Precipitation Wind Pressure Humidity
    00:00 +6°C° 0 mm 0 mps 472 mmHg 67%
    01:00 +6°C° 0 mm 0 mps 472 mmHg 71%
    02:00 +7°C° 0 mm 1 mps 471 mmHg 70%
    03:00 +6°C° 0 mm 1 mps 471 mmHg 70%
    04:00 +6°C° 0 mm 1 mps 471 mmHg 69%
    05:00 +7°C° 0 mm 1 mps 472 mmHg 64%
    06:00 +8°C° 0 mm 1 mps 473 mmHg 60%
    07:00 +8°C° 0 mm 2 mps 475 mmHg 55%
    08:00 +10°C° 0 mm 2 mps 476 mmHg 51%
    09:00 +13°C° 0 mm 2 mps 476 mmHg 47%
    10:00 +13°C° 0 mm 3 mps 477 mmHg 43%
    11:00 +13°C° 0.1 mm 3 mps 477 mmHg 44%
    12:00 +14°C° 0.1 mm 4 mps 477 mmHg 45%
    13:00 +14°C° 0.1 mm 4 mps 476 mmHg 46%
    14:00 +13°C° 0.5 mm 4 mps 475 mmHg 53%
    15:00 +11°C° 0.5 mm 4 mps 474 mmHg 59%
    16:00 +8°C° 0.5 mm 4 mps 473 mmHg 65%
    17:00 +9°C° 0.3 mm 3 mps 473 mmHg 66%
    18:00 +8°C° 0.3 mm 3 mps 473 mmHg 66%
    19:00 +8°C° 0.3 mm 2 mps 473 mmHg 67%
    20:00 +8°C° 0 mm 2 mps 474 mmHg 66%
    21:00 +9°C° 0 mm 1 mps 474 mmHg 65%
    22:00 +8°C° 0 mm 0 mps 474 mmHg 64%
    23:00 +8°C° 0 mm 0 mps 474 mmHg 68%

    26 October, Saturday

    Time Temperature Precipitation Wind Pressure Humidity
    00:00 +7°C° 0 mm 0 mps 473 mmHg 73%
    01:00 +6°C° 0 mm 0 mps 472 mmHg 77%
    02:00 +6°C° 0 mm 0 mps 472 mmHg 79%
    03:00 +5°C° 0 mm 0 mps 472 mmHg 80%
    04:00 +5°C° 0 mm 0 mps 471 mmHg 82%
    05:00 +6°C° 0 mm 0 mps 472 mmHg 75%
    06:00 +8°C° 0 mm 1 mps 474 mmHg 67%
    07:00 +10°C° 0 mm 1 mps 475 mmHg 60%
    08:00 +12°C° 0.1 mm 1 mps 476 mmHg 53%
    09:00 +13°C° 0.1 mm 1 mps 477 mmHg 45%
    10:00 +15°C° 0.1 mm 1 mps 478 mmHg 37%
    11:00 +15°C° 0.2 mm 2 mps 477 mmHg 37%
    12:00 +16°C° 0.2 mm 2 mps 477 mmHg 36%
    13:00 +16°C° 0.2 mm 3 mps 477 mmHg 36%
    14:00 +16°C° 0.2 mm 3 mps 476 mmHg 41%
    15:00 +14°C° 0.2 mm 4 mps 475 mmHg 46%
    16:00 +14°C° 0.2 mm 5 mps 475 mmHg 51%
    17:00 +12°C° 0 mm 4 mps 474 mmHg 58%
    18:00 +11°C° 0 mm 3 mps 474 mmHg 65%
    19:00 +9°C° 0 mm 3 mps 473 mmHg 71%
    20:00 +9°C° 0 mm 2 mps 474 mmHg 72%
    21:00 +10°C° 0 mm 1 mps 474 mmHg 72%
    22:00 +9°C° 0 mm 1 mps 474 mmHg 72%
    23:00 +9°C° 0 mm 1 mps 473 mmHg 72%

    27 October, Sunday

    Time Temperature Precipitation Wind Pressure Humidity
    00:00 +9°C° 0 mm 1 mps 473 mmHg 72%
    01:00 +8°C° 0 mm 1 mps 472 mmHg 72%
    02:00 +8°C° 0 mm 1 mps 472 mmHg 68%
    03:00 +7°C° 0 mm 1 mps 472 mmHg 64%
    04:00 +7°C° 0 mm 1 mps 471 mmHg 60%
    05:00 +8°C° 0 mm 1 mps 473 mmHg 51%
    06:00 +10°C° 0 mm 1 mps 474 mmHg 43%
    07:00 +12°C° 0 mm 1 mps 476 mmHg 35%
    08:00 +13°C° 0 mm 1 mps 477 mmHg 31%
    09:00 +15°C° 0 mm 2 mps 478 mmHg 27%
    10:00 +17°C° 0 mm 3 mps 479 mmHg 23%
    11:00 +17°C° 0.1 mm 3 mps 478 mmHg 26%
    12:00 +17°C° 0.1 mm 4 mps 478 mmHg 30%
    13:00 +18°C° 0.1 mm 4 mps 477 mmHg 33%
    14:00 +17°C° 0.2 mm 4 mps 477 mmHg 37%
    15:00 +17°C° 0.2 mm 4 mps 476 mmHg 41%
    16:00 +15°C° 0.2 mm 4 mps 475 mmHg 45%
    17:00 +13°C° 0 mm 4 mps 475 mmHg 53%
    18:00 +12°C° 0 mm 3 mps 474 mmHg 61%
    19:00 +10°C° 0 mm 3 mps 474 mmHg 69%
    20:00 +10°C° 0 mm 3 mps 474 mmHg 68%
    21:00 +9°C° 0 mm 2 mps 474 mmHg 67%
    22:00 +9°C° 0 mm 2 mps 474 mmHg 66%
    23:00 +8°C° 0 mm 2 mps 474 mmHg 65%
    Show more